RH
38 50 54 36 32 34 33 32 32 27 20 25 23 21 25 24 28 54 57 58 60 62 63 64 67 72 73 74 73 77 78 80 81 86 88 84 90 90 80 77 78 80 79 78
42 51 34 29 31 34 32 35 34 29 22 23 29 26 21 21 24 50 54 58 62 62 66 69 73 76 77 77 75 77 78 81 81 84 86 86 92 84 82 79 77 77 79 80
43 37 28 34 35 34 31 33 30 30 24 25 27 31 25 21 23 38 49 54 57 63 73 70 69 80 82 80 78 77 78 81 82 81 80 82 80 79 76 79 79 80 78 78
37 29 30 31 36 31 36 25 26 26 31 40 26 37 30 25 28 49 52 58 59 61 68 67 74 83 82 83 82 79 76 78 76 81 84 89 90 93 88 87 82 80 77 77
40 37 34 36 31 27 34 25 30 28 33 42 36 40 37 26 35 56 59 58 59 65 69 72 76 77 82 81 83 82 79 78 80 82 84 88 88 90 87 86 83 77 73 72
35 29 31 31 25 23 26 32 38 41 44 59 39 34 25 31 26 52 56 58 63 69 72 72 71 71 80 78 84 85 81 80 78 80 81 84 90 89 91 88 82 84 76 76
42 40 32 28 31 28 26 39 73 66 70 48 32 37 27 26 22 41 57 59 68 70 73 74 75 79 78 79 84 84 82 83 82 82 82 83 87 88 89 90 85 89 79 78
56 55 33 27 32 31 29 30 52 58 62 40 32 51 31 40 25 40 49 57 69 76 74 75 73 74 75 78 84 85 82 82 82 82 83 81 80 84 88 76 83 87 82 79
50 43 26 22 23 23 36 38 30 52 64 80 53 38 44 62 63 53 63 70 77 79 79 78 76 75 79 84 86 88 85 81 79 77 77 72 75 74 78 77 78 84 82 71
41 44 32 26 23 26 32 33 56 79 56 54 43 44 65 75 79 71 77 80 83 81 82 78 75 78 81 83 86 87 85 83 75 73 70 70 73 77 73 74 82 82 83 80
31 41 44 38 32 30 35 36 47 47 54 50 52 62 61 65 71 77 76 80 84 84 79 75 75 77 80 85 87 88 85 82 71 72 74 76 80 80 79 81 85 84 78 75
33 42 48 37 29 28 32 32 45 66 64 66 65 52 53 58 60 63 69 78 81 80 76 73 73 79 83 84 86 88 84 82 78 76 78 81 81 79 82 81 79 80 74 71
88 72 57 46 38 29 34 33 32 41 67 62 69 52 59 51 54 57 70 78 79 78 77 75 73 78 79 79 82 82 83 82 82 78 77 78 79 79 81 80 77 76 71 70
90 92 78 64 60 64 54 36 33 41 65 59 64 54 62 66 64 73 75 79 77 75 72 69 71 73 76 76 78 80 84 82 76 70 76 81 82 80 81 78 79 79 74 73
97 100 99 95 94 78 70 63 60 59 70 73 54 62 64 67 75 76 74 75 75 73 68 65 66 69 73 75 74 72 78 77 69 71 79 86 83 80 81 82 82 81 80 73
93 99 99 95 100 96 91 89 74 96 95 90 81 76 58 52 61 73 78 76 81 77 74 72 62 66 70 71 72 72 74 75 70 76 81 80 82 82 85 83 82 81 82 81
97 97 97 89 98 96 94 76 61 53 57 72 88 62 43 52 53 54 74 73 76 79 70 64 61 64 68 70 71 76 77 72 73 78 79 81 84 86 87 83 82 84 86 86
91 92 96 95 87 96 55 47 49 54 49 46 48 49 50 46 48 52 55 61 65 65 71 63 65 67 70 73 74 70 66 72 76 79 82 83 86 90 89 90 93 95 94 97
76 89 98 93 90 67 48 43 69 73 69 57 55 50 46 51 70 75 86 78 68 72 72 79 69 73 77 77 71 70 72 74 76 83 86 85 87 93 94 97 97 97 95 97
71 78 84 95 98 91 70 50 48 56 83 51 55 56 66 66 86 80 94 91 91 86 77 80 87 82 81 81 70 72 76 77 86 85 87 85 87 93 95 97 96 98 96 97
93 97 90 93 92 84 64 55 49 68 68 58 62 76 80 75 90 96 98 98 96 85 85 83 82 88 90 81 79 84 84 89 86 83 82 82 83 89 93 96 97 95 94 95
87 93 97 93 97 94 56 53 62 71 68 66 77 91 100 99 99 100 100 99 97 95 89 84 90 92 84 73 73 87 90 87 82 80 84 89 90 83 87 94 97 96 94 96
79 85 94 89 87 73 66 61 59 64 62 67 84 98 97 98 99 99 98 98 99 96 92 86 88 88 76 69 66 78 88 81 82 86 92 92 91 93 87 92 95 96 93 94
82 80 87 75 74 70 68 66 75 72 72 79 91 93 98 100 99 98 98 98 98 96 91 88 90 90 92 80 74 75 72 70 73 77 82 84 81 80 77 76 82 90 93 93
81 74 85 89 82 80 70 78 84 82 86 92 92 95 97 98 98 97 98 98 96 94 90 84 86 87 91 91 82 68 70 69 71 71 74 77 72 71 74 80 83 82 96 80
84 82 91 84 73 82 80 81 86 80 88 90 95 97 91 92 97 96 97 94 93 94 91 89 89 88 90 86 78 70 69 67 69 71 73 77 72 62 67 73 80 67 72 69
Wind_Speed
3 4 9 19 11 2 4 4 5 5 5 6 16 13 8 10 7 16 13 14 12 11 8 10 9 9 9 8 8 7 8 6 5 4 4 4 3 3 6 7 11 11 10 10
3 13 18 9 8 8 11 11 13 10 9 7 6 10 12 10 9 21 20 15 15 13 11 10 8 7 7 8 7 8 7 7 5 3 2 2 1 4 3 5 8 9 10 11
12 7 13 13 13 12 14 14 13 10 3 3 6 7 7 6 5 12 15 16 15 19 17 12 9 8 7 8 7 8 7 8 7 7 4 4 3 3 4 6 6 6 8 9
12 15 16 10 15 14 17 13 13 15 8 6 7 8 7 9 6 12 18 19 19 18 14 12 11 8 8 7 8 8 7 8 7 7 5 7 4 4 3 3 3 5 6 8
9 6 13 21 24 16 14 9 9 7 5 0 5 3 8 8 7 10 16 18 17 16 17 14 12 11 9 8 8 7 8 8 7 7 7 5 5 3 2 3 5 6 6 8
10 6 5 8 12 18 8 4 5 4 3 7 7 6 13 9 15 10 13 15 18 16 13 12 11 11 8 7 8 7 8 7 7 7 7 6 6 4 4 5 4 4 5 6
12 22 20 11 9 6 10 6 1 3 1 11 11 8 22 5 10 17 23 20 18 17 16 14 14 11 9 8 8 7 8 7 7 7 6 5 6 6 6 4 4 4 5 5
9 10 16 15 22 10 14 15 8 9 7 9 10 11 11 5 13 16 23 20 17 16 14 14 13 12 10 9 8 8 7 7 7 6 5 4 6 4 4 6 4 3 4 4
7 12 4 13 16 20 11 16 11 3 4 2 6 7 6 6 3 17 19 18 17 15 14 14 12 12 10 8 8 9 7 7 6 5 4 4 4 5 4 4 3 3 4 3
5 10 6 5 12 13 11 6 4 1 14 17 8 6 7 2 8 12 17 17 15 13 12 12 12 12 8 9 8 8 7 7 5 5 4 4 5 4 4 3 4 6 6 8
23 15 9 3 13 20 9 14 6 6 9 16 15 11 9 14 14 18 15 13 16 15 14 13 12 12 11 9 8 8 7 7 5 4 4 5 5 4 4 4 5 6 7 8
18 8 20 30 9 8 5 19 12 8 12 7 6 14 6 9 15 16 16 15 13 13 14 13 14 12 12 11 9 8 7 7 6 5 4 5 6 5 5 6 6 8 8 9
10 5 16 16 12 20 16 17 22 14 4 13 10 11 4 7 8 6 10 12 11 13 13 11 13 13 12 12 10 9 7 7 6 5 6 6 6 6 6 7 8 10 9 9
8 5 5 17 2 5 7 21 23 20 12 14 10 4 5 6 9 6 11 13 14 15 16 13 13 13 13 12 11 9 8 6 8 8 7 6 6 7 7 7 8 9 8 8
3 2 5 8 15 13 11 12 5 4 2 8 16 6 4 6 7 8 12 14 16 15 14 16 16 14 14 13 11 9 7 9 10 10 9 6 7 8 8 8 9 8 8 8
4 2 4 3 4 8 8 12 14 7 4 5 2 8 4 9 10 12 12 12 11 12 18 20 16 17 18 16 14 11 9 9 11 11 9 7 8 8 8 8 9 8 7 7
2 3 4 3 4 4 5 12 12 12 12 8 6 12 15 7 10 12 18 19 20 20 18 20 20 19 17 16 14 12 11 11 12 11 8 8 8 8 8 8 8 8 7 7
7 7 4 4 5 3 12 10 9 8 13 10 9 10 11 12 9 9 7 16 19 22 22 19 17 16 16 16 14 13 13 13 12 10 9 8 8 8 8 8 7 6 5 4
9 5 2 2 4 4 11 6 7 5 5 5 6 7 6 2 3 3 4 6 10 13 15 15 18 21 17 15 15 15 13 13 12 10 9 8 9 8 8 6 5 6 7 4
6 3 4 2 2 5 5 5 8 7 4 5 2 5 1 4 3 6 7 7 7 9 16 20 19 17 16 15 16 15 13 13 11 10 9 8 9 8 7 6 7 3 4 4
3 1 10 4 4 8 5 8 4 4 7 4 2 1 1 4 3 3 4 7 4 11 17 18 17 17 15 15 16 15 14 11 10 10 10 9 8 8 6 5 4 9 8 5
6 6 5 5 5 7 5 2 2 7 3 3 4 5 4 6 6 6 7 8 10 14 17 15 16 14 12 14 15 14 12 12 12 11 10 8 7 5 5 5 6 10 9 6
2 6 6 7 7 5 4 3 2 3 7 4 6 5 9 9 5 7 7 9 10 12 11 12 15 15 12 12 14 15 12 13 13 11 9 8 6 5 6 7 8 7 8 6
1 0 3 1 2 4 7 6 2 3 6 3 4 9 7 7 9 9 8 9 9 9 11 11 14 14 12 12 13 14 14 13 13 12 11 9 9 8 7 5 6 6 6 5
5 4 5 4 7 4 5 3 4 2 5 9 8 8 10 12 9 10 10 9 9 8 9 11 12 12 12 12 13 13 14 13 12 12 10 10 8 7 7 5 4 5 2 7
5 6 5 7 6 5 6 5 7 7 8 10 10 8 8 8 11 8 9 9 9 9 9 10 10 12 13 13 13 13 13 13 13 12 9 8 8 7 7 7 7 13 13 13
Wind_Direction
193 139 207 214 222 250 219 240 236 241 233 169 209 210 212 204 127 156 159 156 152 143 151 126 120 112 107 90 84 82 65 35 31 3 358 16 30 26 41 38 38 48 36 28
254 226 228 229 235 229 248 255 259 283 266 170 198 226 207 206 200 171 164 164 158 149 146 133 126 106 99 101 98 87 75 58 41 36 1 8 352 59 54 41 45 42 40 32
209 227 206 214 234 240 236 232 248 238 272 269 121 285 268 213 189 159 174 163 160 161 153 149 135 133 128 111 105 107 93 72 49 36 23 7 27 41 30 35 31 41 45 40
244 236 250 235 236 224 242 230 244 251 227 212 174 250 243 219 212 161 171 169 168 165 154 150 141 138 123 111 100 100 89 80 67 51 51 51 51 45 11 17 24 28 31 36
229 206 214 226 231 225 247 221 228 207 189 225 192 225 241 196 213 195 177 176 172 162 155 153 149 142 127 123 119 111 99 86 76 65 62 58 55 52 19 13 20 31 28 29
243 268 211 221 234 223 255 192 46 45 110 248 165 187 233 201 204 179 177 166 160 155 151 145 142 135 123 114 108 105 99 85 79 69 62 70 76 74 48 28 35 15 32 20
257 252 255 260 289 251 203 137 249 284 249 240 170 210 242 238 223 179 173 172 167 157 155 150 149 137 131 120 118 112 101 91 91 86 74 75 84 71 60 46 38 21 28 28
203 271 209 218 217 221 220 201 200 200 198 239 179 239 246 262 235 179 177 165 151 159 158 153 149 145 133 125 114 113 110 105 100 89 86 70 67 71 58 56 44 24 12 24
201 248 212 231 204 194 214 210 193 147 17 70 208 270 302 20 41 149 155 158 164 162 157 155 142 140 130 126 119 124 117 113 113 128 105 87 90 88 78 68 65 32 348 22
215 278 213 222 202 231 203 170 144 288 222 240 224 229 229 183 146 144 156 169 163 154 153 148 141 136 134 130 126 122 123 127 136 132 122 128 118 113 107 97 80 50 6 41
228 245 259 17 201 212 208 212 225 183 197 227 251 252 209 190 177 175 181 166 157 155 158 145 141 144 141 134 134 130 130 136 149 149 155 153 142 127 97 67 56 53 58 59
229 216 248 240 265 287 265 236 202 192 224 221 209 246 308 168 176 178 172 161 161 157 153 144 144 147 148 145 145 144 152 151 170 176 132 103 101 90 82 67 62 59 69 52
342 252 240 263 266 253 241 243 225 217 98 206 201 238 199 184 157 165 151 152 154 150 153 146 152 160 159 154 155 154 156 167 170 121 113 98 95 91 82 71 65 60 80 64
350 283 251 242 251 289 224 239 222 211 213 220 224 158 68 121 128 101 143 155 161 169 171 159 166 169 166 157 157 160 166 163 135 120 106 103 94 93 85 79 71 66 76 64
108 341 355 10 8 357 345 337 17 223 47 217 235 194 92 132 155 156 148 151 161 172 182 181 176 175 160 155 154 158 149 140 130 116 110 110 102 94 89 81 74 71 69 72
200 59 357 318 90 348 324 326 331 285 262 245 255 289 198 241 181 190 161 168 184 222 189 188 182 167 161 157 159 163 148 137 120 119 122 118 102 101 98 91 82 77 71 66
148 139 207 272 144 92 277 235 248 228 225 220 256 251 260 239 231 190 182 188 210 201 198 195 178 170 159 153 155 161 139 129 123 121 129 121 113 110 103 100 96 91 80 72
189 182 176 238 163 182 237 243 275 270 264 256 247 235 242 241 224 221 198 205 211 203 193 177 159 158 156 152 151 139 137 132 127 130 133 126 120 115 110 106 109 100 88 66
195 168 193 199 201 294 282 221 162 128 283 279 217 223 235 264 89 256 7 302 209 184 170 158 155 155 151 144 138 134 132 128 126 127 133 134 127 120 115 119 128 110 102 65
184 160 146 124 149 236 189 144 146 164 292 321 230 277 120 87 108 251 355 336 95 104 138 145 144 142 141 139 135 135 134 126 132 139 142 136 127 124 126 139 135 115 95 89
127 35 212 209 235 276 267 268 167 139 240 294 356 101 149 190 185 99 57 51 46 118 130 133 135 142 141 136 137 135 129 133 139 138 137 130 129 131 139 150 115 130 114 96
160 148 181 179 198 269 218 308 120 215 244 205 160 161 111 112 98 88 98 103 106 119 130 136 132 131 126 135 135 128 129 141 143 141 133 129 129 137 144 115 111 137 127 105
216 172 184 177 212 257 298 251 308 186 221 216 141 138 143 138 146 136 123 117 122 130 131 132 130 125 132 138 136 130 139 143 142 137 137 136 127 107 111 106 113 112 119 125
15 343 169 98 249 239 285 279 295 268 233 69 106 144 140 137 145 137 136 135 134 137 138 138 135 136 133 135 136 135 145 144 143 140 145 130 120 114 102 97 108 119 125 120
187 150 181 271 274 288 255 210 198 150 102 112 123 157 156 151 159 154 148 145 143 149 143 145 145 144 140 139 142 147 147 145 145 143 135 134 128 120 113 94 110 115 80 131
175 184 163 226 227 189 243 201 220 184 162 168 139 134 147 154 153 154 149 152 151 151 149 147 146 145 145 148 149 152 149 148 151 148 137 141 133 126 126 121 114 118 124 130